owner,sensor,date,latitude,longitude,vertical_datum,wind_speed,wind_to_direction,wind_speed_of_gust,qcFlag 
DISL,ioos:station:DISL:KATA:1,2017-06-01T00:00:00Z,30.2583,-88.2131,0.0,4.42,165.8,-999.0,'1111122,1111122,1111122' 
DISL,ioos:station:DISL:KATA:1,2017-06-01T00:30:00Z,30.2583,-88.2131,0.0,5.06,172.4,-999.0,'1111122,1111122,1111122' 
DISL,ioos:station:DISL:KATA:1,2017-06-01T01:00:00Z,30.2583,-88.2131,0.0,5.34,179.2,-999.0,'1111122,1111122,1111122' 
DISL,ioos:station:DISL:KATA:1,2017-06-01T01:30:00Z,30.2583,-88.2131,0.0,6.98,183.4,-999.0,'1111122,1111122,1111122' 
DISL,ioos:station:DISL:KATA:1,2017-06-01T02:00:00Z,30.2583,-88.2131,0.0,7.9,172.3,-999.0,'1111122,1111122,1111122' 
DISL,ioos:station:DISL:KATA:1,2017-06-01T02:30:00Z,30.2583,-88.2131,0.0,3.92,189.7,-999.0,'1111122,1111122,1111122' 
DISL,ioos:station:DISL:KATA:1,2017-06-01T03:00:00Z,30.2583,-88.2131,0.0,2.57,225.5,-999.0,'1111122,1111122,1111122' 
DISL,ioos:station:DISL:KATA:1,2017-06-01T03:30:00Z,30.2583,-88.2131,0.0,1.94,246.5,-999.0,'1111122,1111122,1111122' 
DISL,ioos:station:DISL:KATA:1,2017-06-01T04:00:00Z,30.2583,-88.2131,0.0,2.13,265.2,-999.0,'1111122,1111122,1111122' 
DISL,ioos:station:DISL:KATA:1,2017-06-01T04:30:00Z,30.2583,-88.2131,0.0,3.54,221.5,-999.0,'1111122,1111122,1111122' 
DISL,ioos:station:DISL:KATA:1,2017-06-01T05:00:00Z,30.2583,-88.2131,0.0,2.0,217.7,-999.0,'1111122,1111122,1111122' 
DISL,ioos:station:DISL:KATA:1,2017-06-01T05:30:00Z,30.2583,-88.2131,0.0,0.64,158.1,-999.0,'1111122,1111122,1111122' 
DISL,ioos:station:DISL:KATA:1,2017-06-01T06:00:00Z,30.2583,-88.2131,0.0,2.7,84.6,-999.0,'1111122,1111122,1111122' 
DISL,ioos:station:DISL:KATA:1,2017-06-01T06:30:00Z,30.2583,-88.2131,0.0,3.44,96.8,-999.0,'1111122,1111122,1111122' 
DISL,ioos:station:DISL:KATA:1,2017-06-01T07:00:00Z,30.2583,-88.2131,0.0,3.91,80.7,-999.0,'1111122,1111122,1111122' 
DISL,ioos:station:DISL:KATA:1,2017-06-01T07:30:00Z,30.2583,-88.2131,0.0,4.66,80.2,-999.0,'1111122,1111122,1111122' 
DISL,ioos:station:DISL:KATA:1,2017-06-01T08:00:00Z,30.2583,-88.2131,0.0,4.66,95.3,-999.0,'1111122,1111122,1111122' 
DISL,ioos:station:DISL:KATA:1,2017-06-01T08:30:00Z,30.2583,-88.2131,0.0,3.33,100.6,-999.0,'1111122,1111122,1111122' 
DISL,ioos:station:DISL:KATA:1,2017-06-01T09:00:00Z,30.2583,-88.2131,0.0,3.59,86.5,-999.0,'1111122,1111122,1111122' 
DISL,ioos:station:DISL:KATA:1,2017-06-01T09:30:00Z,30.2583,-88.2131,0.0,4.3,84.3,-999.0,'1111122,1111122,1111122' 
DISL,ioos:station:DISL:KATA:1,2017-06-01T10:00:00Z,30.2583,-88.2131,0.0,4.37,87.9,-999.0,'1111122,1111122,1111122' 
DISL,ioos:station:DISL:KATA:1,2017-06-01T10:30:00Z,30.2583,-88.2131,0.0,3.68,92.1,-999.0,'1111122,1111122,1111122' 
DISL,ioos:station:DISL:KATA:1,2017-06-01T11:00:00Z,30.2583,-88.2131,0.0,3.52,96.4,-999.0,'1111122,1111122,1111122' 
DISL,ioos:station:DISL:KATA:1,2017-06-01T11:30:00Z,30.2583,-88.2131,0.0,4.39,96.2,-999.0,'1111122,1111122,1111122' 
DISL,ioos:station:DISL:KATA:1,2017-06-01T12:00:00Z,30.2583,-88.2131,0.0,4.35,96.1,-999.0,'1111122,1111122,1111122' 
DISL,ioos:station:DISL:KATA:1,2017-06-01T12:30:00Z,30.2583,-88.2131,0.0,4.38,96.1,-999.0,'1111122,1111122,1111122' 
DISL,ioos:station:DISL:KATA:1,2017-06-01T13:00:00Z,30.2583,-88.2131,0.0,4.44,101.3,-999.0,'1111122,1111122,1111122' 
DISL,ioos:station:DISL:KATA:1,2017-06-01T13:30:00Z,30.2583,-88.2131,0.0,3.7,105.2,-999.0,'1111122,1111122,1111122' 
DISL,ioos:station:DISL:KATA:1,2017-06-01T14:00:00Z,30.2583,-88.2131,0.0,3.58,87.4,-999.0,'1111122,1111122,1111122' 
DISL,ioos:station:DISL:KATA:1,2017-06-01T14:30:00Z,30.2583,-88.2131,0.0,4.55,113.8,-999.0,'1111122,1111122,1111122' 
DISL,ioos:station:DISL:KATA:1,2017-06-01T15:00:00Z,30.2583,-88.2131,0.0,8.68,141.8,-999.0,'1111122,1111122,1111122' 
DISL,ioos:station:DISL:KATA:1,2017-06-01T15:30:00Z,30.2583,-88.2131,0.0,6.99,130.8,-999.0,'1111122,1111122,1111122' 
DISL,ioos:station:DISL:KATA:1,2017-06-01T16:00:00Z,30.2583,-88.2131,0.0,5.28,128.4,-999.0,'1111122,1111122,1111122' 
DISL,ioos:station:DISL:KATA:1,2017-06-01T16:30:00Z,30.2583,-88.2131,0.0,3.14,168.1,-999.0,'1111122,1111122,1111122' 
DISL,ioos:station:DISL:KATA:1,2017-06-01T17:00:00Z,30.2583,-88.2131,0.0,0.78,248.6,-999.0,'1111122,1111122,1111122' 
DISL,ioos:station:DISL:KATA:1,2017-06-01T17:30:00Z,30.2583,-88.2131,0.0,4.16,15.84,-999.0,'1111122,1111122,1111122' 
DISL,ioos:station:DISL:KATA:1,2017-06-01T18:00:00Z,30.2583,-88.2131,0.0,3.03,3.61,-999.0,'1111122,1111122,1111122' 
DISL,ioos:station:DISL:KATA:1,2017-06-01T18:30:00Z,30.2583,-88.2131,0.0,2.93,3.834,-999.0,'1111122,1111122,1111122' 
DISL,ioos:station:DISL:KATA:1,2017-06-01T19:00:00Z,30.2583,-88.2131,0.0,2.73,51.38,-999.0,'1111122,1111122,1111122' 
DISL,ioos:station:DISL:KATA:1,2017-06-01T19:30:00Z,30.2583,-88.2131,0.0,2.46,89.7,-999.0,'1111122,1111122,1111122' 
DISL,ioos:station:DISL:KATA:1,2017-06-01T20:00:00Z,30.2583,-88.2131,0.0,2.64,65.4,-999.0,'1111122,1111122,1111122' 
DISL,ioos:station:DISL:KATA:1,2017-06-01T20:30:00Z,30.2583,-88.2131,0.0,3.05,60.94,-999.0,'1111122,1111122,1111122' 
DISL,ioos:station:DISL:KATA:1,2017-06-01T21:00:00Z,30.2583,-88.2131,0.0,2.87,79.0,-999.0,'1111122,1111122,1111122' 
DISL,ioos:station:DISL:KATA:1,2017-06-01T21:30:00Z,30.2583,-88.2131,0.0,3.5,81.3,-999.0,'1111122,1111122,1111122' 
DISL,ioos:station:DISL:KATA:1,2017-06-01T22:00:00Z,30.2583,-88.2131,0.0,3.95,101.8,-999.0,'1111122,1111122,1111122' 
DISL,ioos:station:DISL:KATA:1,2017-06-01T22:30:00Z,30.2583,-88.2131,0.0,3.96,122.6,-999.0,'1111122,1111122,1111122' 
DISL,ioos:station:DISL:KATA:1,2017-06-01T23:00:00Z,30.2583,-88.2131,0.0,4.49,131.9,-999.0,'1111122,1111122,1111122' 
DISL,ioos:station:DISL:KATA:1,2017-06-01T23:30:00Z,30.2583,-88.2131,0.0,4.96,143.1,-999.0,'1111122,1111122,1111122' 
DISL,ioos:station:DISL:KATA:1,2017-06-02T00:00:00Z,30.2583,-88.2131,0.0,4.68,140.1,-999.0,'1111122,1111122,1111122' 
DISL,ioos:station:DISL:KATA:1,2017-06-02T00:30:00Z,30.2583,-88.2131,0.0,4.8,143.8,-999.0,'1111122,1111122,1111122' 
DISL,ioos:station:DISL:KATA:1,2017-06-02T01:00:00Z,30.2583,-88.2131,0.0,5.78,185.6,-999.0,'1111122,1111122,1111122' 
DISL,ioos:station:DISL:KATA:1,2017-06-02T01:30:00Z,30.2583,-88.2131,0.0,3.74,175.9,-999.0,'1111122,1111122,1111122' 
DISL,ioos:station:DISL:KATA:1,2017-06-02T02:00:00Z,30.2583,-88.2131,0.0,1.94,167.6,-999.0,'1111122,1111122,1111122' 
DISL,ioos:station:DISL:KATA:1,2017-06-02T02:30:00Z,30.2583,-88.2131,0.0,2.08,96.4,-999.0,'1111122,1111122,1111122' 
DISL,ioos:station:DISL:KATA:1,2017-06-02T03:00:00Z,30.2583,-88.2131,0.0,0.99,328.7,-999.0,'1111122,1111122,1111122' 
DISL,ioos:station:DISL:KATA:1,2017-06-02T03:30:00Z,30.2583,-88.2131,0.0,1.62,37.63,-999.0,'1111122,1111122,1111122' 
DISL,ioos:station:DISL:KATA:1,2017-06-02T04:00:00Z,30.2583,-88.2131,0.0,2.95,58.05,-999.0,'1111122,1111122,1111122' 
DISL,ioos:station:DISL:KATA:1,2017-06-02T04:30:00Z,30.2583,-88.2131,0.0,3.32,93.6,-999.0,'1111122,1111122,1111122' 
DISL,ioos:station:DISL:KATA:1,2017-06-02T05:00:00Z,30.2583,-88.2131,0.0,2.55,120.1,-999.0,'1111122,1111122,1111122' 
DISL,ioos:station:DISL:KATA:1,2017-06-02T05:30:00Z,30.2583,-88.2131,0.0,2.92,117.8,-999.0,'1111122,1111122,1111122' 
DISL,ioos:station:DISL:KATA:1,2017-06-02T06:00:00Z,30.2583,-88.2131,0.0,4.25,132.4,-999.0,'1111122,1111122,1111122' 
DISL,ioos:station:DISL:KATA:1,2017-06-02T06:30:00Z,30.2583,-88.2131,0.0,3.84,135.7,-999.0,'1111122,1111122,1111122' 
DISL,ioos:station:DISL:KATA:1,2017-06-02T07:00:00Z,30.2583,-88.2131,0.0,3.58,148.2,-999.0,'1111122,1111122,1111122' 
DISL,ioos:station:DISL:KATA:1,2017-06-02T07:30:00Z,30.2583,-88.2131,0.0,4.8,157.3,-999.0,'1111122,1111122,1111122' 
DISL,ioos:station:DISL:KATA:1,2017-06-02T08:00:00Z,30.2583,-88.2131,0.0,4.64,159.3,-999.0,'1111122,1111122,1111122' 
DISL,ioos:station:DISL:KATA:1,2017-06-02T08:30:00Z,30.2583,-88.2131,0.0,3.38,151.4,-999.0,'1111122,1111122,1111122' 
DISL,ioos:station:DISL:KATA:1,2017-06-02T09:00:00Z,30.2583,-88.2131,0.0,3.25,154.4,-999.0,'1111122,1111122,1111122' 
DISL,ioos:station:DISL:KATA:1,2017-06-02T10:00:00Z,30.2583,-88.2131,0.0,3.65,146.1,-999.0,'1111122,1111122,1111122' 
DISL,ioos:station:DISL:KATA:1,2017-06-02T10:30:00Z,30.2583,-88.2131,0.0,3.34,135.5,-999.0,'1111122,1111122,1111122' 
DISL,ioos:station:DISL:KATA:1,2017-06-02T11:00:00Z,30.2583,-88.2131,0.0,3.1,130.2,-999.0,'1111122,1111122,1111122' 
DISL,ioos:station:DISL:KATA:1,2017-06-02T11:30:00Z,30.2583,-88.2131,0.0,3.28,128.6,-999.0,'1111122,1111122,1111122' 
DISL,ioos:station:DISL:KATA:1,2017-06-02T12:00:00Z,30.2583,-88.2131,0.0,3.5,130.6,-999.0,'1111122,1111122,1111122' 
DISL,ioos:station:DISL:KATA:1,2017-06-02T12:30:00Z,30.2583,-88.2131,0.0,3.66,128.6,-999.0,'1111122,1111122,1111122' 
DISL,ioos:station:DISL:KATA:1,2017-06-02T13:00:00Z,30.2583,-88.2131,0.0,3.79,126.0,-999.0,'1111122,1111122,1111122' 
DISL,ioos:station:DISL:KATA:1,2017-06-02T13:30:00Z,30.2583,-88.2131,0.0,3.36,97.1,-999.0,'1111122,1111122,1111122' 
DISL,ioos:station:DISL:KATA:1,2017-06-02T14:00:00Z,30.2583,-88.2131,0.0,3.65,105.0,-999.0,'1111122,1111122,1111122' 
DISL,ioos:station:DISL:KATA:1,2017-06-02T15:00:00Z,30.2583,-88.2131,0.0,4.01,137.1,-999.0,'1111122,1111122,1111122' 
DISL,ioos:station:DISL:KATA:1,2017-06-02T16:30:00Z,30.2583,-88.2131,0.0,7.16,172.5,-999.0,'1111122,1111122,1111122' 
DISL,ioos:station:DISL:KATA:1,2017-06-02T17:00:00Z,30.2583,-88.2131,0.0,6.54,159.8,-999.0,'1111122,1111122,1111122' 
DISL,ioos:station:DISL:KATA:1,2017-06-02T17:30:00Z,30.2583,-88.2131,0.0,9.25,152.4,-999.0,'1111122,1111122,1111122' 
DISL,ioos:station:DISL:KATA:1,2017-06-02T18:00:00Z,30.2583,-88.2131,0.0,7.55,155.4,-999.0,'1111122,1111122,1111122' 
DISL,ioos:station:DISL:KATA:1,2017-06-02T18:30:00Z,30.2583,-88.2131,0.0,8.34,150.5,-999.0,'1111122,1111122,1111122' 
DISL,ioos:station:DISL:KATA:1,2017-06-02T19:00:00Z,30.2583,-88.2131,0.0,8.43,134.3,-999.0,'1111122,1111122,1111122' 
DISL,ioos:station:DISL:KATA:1,2017-06-02T19:30:00Z,30.2583,-88.2131,0.0,6.62,129.5,-999.0,'1111122,1111122,1111122' 
DISL,ioos:station:DISL:KATA:1,2017-06-02T20:00:00Z,30.2583,-88.2131,0.0,6.06,132.1,-999.0,'1111122,1111122,1111122' 
DISL,ioos:station:DISL:KATA:1,2017-06-02T20:30:00Z,30.2583,-88.2131,0.0,6.7,148.1,-999.0,'1111122,1111122,1111122' 
DISL,ioos:station:DISL:KATA:1,2017-06-02T21:00:00Z,30.2583,-88.2131,0.0,8.15,161.6,-999.0,'1111122,1111122,1111122' 
DISL,ioos:station:DISL:KATA:1,2017-06-02T21:30:00Z,30.2583,-88.2131,0.0,8.36,165.3,-999.0,'1111122,1111122,1111122' 
DISL,ioos:station:DISL:KATA:1,2017-06-02T22:00:00Z,30.2583,-88.2131,0.0,7.7,156.4,-999.0,'1111122,1111122,1111122' 
DISL,ioos:station:DISL:KATA:1,2017-06-02T22:30:00Z,30.2583,-88.2131,0.0,7.1,169.5,-999.0,'1111122,1111122,1111122' 
DISL,ioos:station:DISL:KATA:1,2017-06-02T23:00:00Z,30.2583,-88.2131,0.0,5.19,170.9,-999.0,'1111122,1111122,1111122' 
DISL,ioos:station:DISL:KATA:1,2017-06-02T23:30:00Z,30.2583,-88.2131,0.0,5.45,184.1,-999.0,'1111122,1111122,1111122' 
DISL,ioos:station:DISL:KATA:1,2017-06-03T00:00:00Z,30.2583,-88.2131,0.0,7.51,177.5,-999.0,'1111122,1111122,1111122' 
DISL,ioos:station:DISL:KATA:1,2017-06-03T00:30:00Z,30.2583,-88.2131,0.0,6.0,172.6,-999.0,'1111122,1111122,1111122' 
DISL,ioos:station:DISL:KATA:1,2017-06-03T01:00:00Z,30.2583,-88.2131,0.0,4.35,160.6,-999.0,'1111122,1111122,1111122' 
DISL,ioos:station:DISL:KATA:1,2017-06-03T01:30:00Z,30.2583,-88.2131,0.0,6.2,176.2,-999.0,'1111122,1111122,1111122' 
DISL,ioos:station:DISL:KATA:1,2017-06-03T02:00:00Z,30.2583,-88.2131,0.0,6.66,168.5,-999.0,'1111122,1111122,1111122' 
DISL,ioos:station:DISL:KATA:1,2017-06-03T02:30:00Z,30.2583,-88.2131,0.0,8.02,175.4,-999.0,'1111122,1111122,1111122' 
DISL,ioos:station:DISL:KATA:1,2017-06-03T03:00:00Z,30.2583,-88.2131,0.0,7.54,158.4,-999.0,'1111122,1111122,1111122' 
DISL,ioos:station:DISL:KATA:1,2017-06-03T03:30:00Z,30.2583,-88.2131,0.0,7.73,174.4,-999.0,'1111122,1111122,1111122' 
DISL,ioos:station:DISL:KATA:1,2017-06-03T04:00:00Z,30.2583,-88.2131,0.0,8.33,155.5,-999.0,'1111122,1111122,1111122' 
DISL,ioos:station:DISL:KATA:1,2017-06-03T04:30:00Z,30.2583,-88.2131,0.0,7.25,147.0,-999.0,'1111122,1111122,1111122' 
DISL,ioos:station:DISL:KATA:1,2017-06-03T05:00:00Z,30.2583,-88.2131,0.0,7.19,147.9,-999.0,'1111122,1111122,1111122' 
DISL,ioos:station:DISL:KATA:1,2017-06-03T05:30:00Z,30.2583,-88.2131,0.0,7.39,144.6,-999.0,'1111122,1111122,1111122' 
DISL,ioos:station:DISL:KATA:1,2017-06-03T06:00:00Z,30.2583,-88.2131,0.0,8.65,162.4,-999.0,'1111122,1111122,1111122' 
DISL,ioos:station:DISL:KATA:1,2017-06-03T06:30:00Z,30.2583,-88.2131,0.0,7.04,136.9,-999.0,'1111122,1111122,1111122' 
DISL,ioos:station:DISL:KATA:1,2017-06-03T07:00:00Z,30.2583,-88.2131,0.0,6.99,142.3,-999.0,'1111122,1111122,1111122' 
DISL,ioos:station:DISL:KATA:1,2017-06-03T07:30:00Z,30.2583,-88.2131,0.0,7.61,144.5,-999.0,'1111122,1111122,1111122' 
DISL,ioos:station:DISL:KATA:1,2017-06-03T08:00:00Z,30.2583,-88.2131,0.0,7.75,146.8,-999.0,'1111122,1111122,1111122' 
DISL,ioos:station:DISL:KATA:1,2017-06-03T08:30:00Z,30.2583,-88.2131,0.0,7.38,154.6,-999.0,'1111122,1111122,1111122' 
DISL,ioos:station:DISL:KATA:1,2017-06-03T09:00:00Z,30.2583,-88.2131,0.0,6.08,147.1,-999.0,'1111122,1111122,1111122' 
DISL,ioos:station:DISL:KATA:1,2017-06-03T09:30:00Z,30.2583,-88.2131,0.0,6.64,160.6,-999.0,'1111122,1111122,1111122' 
DISL,ioos:station:DISL:KATA:1,2017-06-03T10:00:00Z,30.2583,-88.2131,0.0,6.25,167.4,-999.0,'1111122,1111122,1111122' 
DISL,ioos:station:DISL:KATA:1,2017-06-03T10:30:00Z,30.2583,-88.2131,0.0,4.66,165.6,-999.0,'1111122,1111122,1111122' 
DISL,ioos:station:DISL:KATA:1,2017-06-03T11:00:00Z,30.2583,-88.2131,0.0,4.34,158.7,-999.0,'1111122,1111122,1111122' 
DISL,ioos:station:DISL:KATA:1,2017-06-03T11:30:00Z,30.2583,-88.2131,0.0,5.09,167.0,-999.0,'1111122,1111122,1111122' 
DISL,ioos:station:DISL:KATA:1,2017-06-03T12:00:00Z,30.2583,-88.2131,0.0,7.03,184.6,-999.0,'1111122,1111122,1111122' 
DISL,ioos:station:DISL:KATA:1,2017-06-03T12:30:00Z,30.2583,-88.2131,0.0,7.15,186.3,-999.0,'1111122,1111122,1111122' 
DISL,ioos:station:DISL:KATA:1,2017-06-03T13:00:00Z,30.2583,-88.2131,0.0,5.11,198.1,-999.0,'1111122,1111122,1111122' 
DISL,ioos:station:DISL:KATA:1,2017-06-03T13:30:00Z,30.2583,-88.2131,0.0,7.1,192.9,-999.0,'1111122,1111122,1111122' 
DISL,ioos:station:DISL:KATA:1,2017-06-03T14:00:00Z,30.2583,-88.2131,0.0,6.14,174.7,-999.0,'1111122,1111122,1111122' 
DISL,ioos:station:DISL:KATA:1,2017-06-03T14:30:00Z,30.2583,-88.2131,0.0,6.6,168.4,-999.0,'1111122,1111122,1111122' 
DISL,ioos:station:DISL:KATA:1,2017-06-03T15:00:00Z,30.2583,-88.2131,0.0,6.47,163.8,-999.0,'1111122,1111122,1111122' 
DISL,ioos:station:DISL:KATA:1,2017-06-03T15:30:00Z,30.2583,-88.2131,0.0,5.14,170.0,-999.0,'1111122,1111122,1111122' 
DISL,ioos:station:DISL:KATA:1,2017-06-03T16:00:00Z,30.2583,-88.2131,0.0,5.47,166.4,-999.0,'1111122,1111122,1111122' 
DISL,ioos:station:DISL:KATA:1,2017-06-03T16:30:00Z,30.2583,-88.2131,0.0,4.02,188.8,-999.0,'1111122,1111122,1111122' 
DISL,ioos:station:DISL:KATA:1,2017-06-03T17:00:00Z,30.2583,-88.2131,0.0,5.07,158.5,-999.0,'1111122,1111122,1111122' 
DISL,ioos:station:DISL:KATA:1,2017-06-03T17:30:00Z,30.2583,-88.2131,0.0,5.29,163.3,-999.0,'1111122,1111122,1111122' 
DISL,ioos:station:DISL:KATA:1,2017-06-03T18:00:00Z,30.2583,-88.2131,0.0,4.22,152.9,-999.0,'1111122,1111122,1111122' 
DISL,ioos:station:DISL:KATA:1,2017-06-03T18:30:00Z,30.2583,-88.2131,0.0,4.13,152.9,-999.0,'1111122,1111122,1111122' 
DISL,ioos:station:DISL:KATA:1,2017-06-03T19:00:00Z,30.2583,-88.2131,0.0,5.43,158.0,-999.0,'1111122,1111122,1111122' 
DISL,ioos:station:DISL:KATA:1,2017-06-03T19:30:00Z,30.2583,-88.2131,0.0,3.5,134.9,-999.0,'1111122,1111122,1111122' 
DISL,ioos:station:DISL:KATA:1,2017-06-03T20:00:00Z,30.2583,-88.2131,0.0,3.23,131.4,-999.0,'1111122,1111122,1111122' 
DISL,ioos:station:DISL:KATA:1,2017-06-03T20:30:00Z,30.2583,-88.2131,0.0,4.64,142.7,-999.0,'1111122,1111122,1111122' 
DISL,ioos:station:DISL:KATA:1,2017-06-03T21:00:00Z,30.2583,-88.2131,0.0,4.46,120.8,-999.0,'1111122,1111122,1111122' 
DISL,ioos:station:DISL:KATA:1,2017-06-03T21:30:00Z,30.2583,-88.2131,0.0,4.34,151.6,-999.0,'1111122,1111122,1111122' 
DISL,ioos:station:DISL:KATA:1,2017-06-03T22:00:00Z,30.2583,-88.2131,0.0,4.57,142.8,-999.0,'1111122,1111122,1111122' 
DISL,ioos:station:DISL:KATA:1,2017-06-03T22:30:00Z,30.2583,-88.2131,0.0,2.91,155.2,-999.0,'1111122,1111122,1111122' 
DISL,ioos:station:DISL:KATA:1,2017-06-03T23:00:00Z,30.2583,-88.2131,0.0,1.11,79.48,-999.0,'1111122,1111122,1111122' 
DISL,ioos:station:DISL:KATA:1,2017-06-03T23:30:00Z,30.2583,-88.2131,0.0,3.36,28.93,-999.0,'1111122,1111122,1111122' 
DISL,ioos:station:DISL:KATA:1,2017-06-04T00:00:00Z,30.2583,-88.2131,0.0,7.3,309.1,-999.0,'1111122,1111122,1111122' 
DISL,ioos:station:DISL:KATA:1,2017-06-04T00:30:00Z,30.2583,-88.2131,0.0,2.38,58.26,-999.0,'1111122,1111122,1111122' 
DISL,ioos:station:DISL:KATA:1,2017-06-04T01:00:00Z,30.2583,-88.2131,0.0,5.04,61.26,-999.0,'1111122,1111122,1111122' 
DISL,ioos:station:DISL:KATA:1,2017-06-04T01:30:00Z,30.2583,-88.2131,0.0,5.12,86.4,-999.0,'1111122,1111122,1111122' 
DISL,ioos:station:DISL:KATA:1,2017-06-04T02:00:00Z,30.2583,-88.2131,0.0,6.27,87.6,-999.0,'1111122,1111122,1111122' 
DISL,ioos:station:DISL:KATA:1,2017-06-04T02:30:00Z,30.2583,-88.2131,0.0,6.83,96.2,-999.0,'1111122,1111122,1111122' 
DISL,ioos:station:DISL:KATA:1,2017-06-04T03:00:00Z,30.2583,-88.2131,0.0,6.04,122.6,-999.0,'1111122,1111122,1111122' 
DISL,ioos:station:DISL:KATA:1,2017-06-04T03:30:00Z,30.2583,-88.2131,0.0,5.79,122.7,-999.0,'1111122,1111122,1111122' 
DISL,ioos:station:DISL:KATA:1,2017-06-04T04:00:00Z,30.2583,-88.2131,0.0,5.78,143.6,-999.0,'1111122,1111122,1111122' 
DISL,ioos:station:DISL:KATA:1,2017-06-04T04:30:00Z,30.2583,-88.2131,0.0,6.04,142.2,-999.0,'1111122,1111122,1111122' 
DISL,ioos:station:DISL:KATA:1,2017-06-04T05:00:00Z,30.2583,-88.2131,0.0,5.15,141.8,-999.0,'1111122,1111122,1111122' 
DISL,ioos:station:DISL:KATA:1,2017-06-04T05:30:00Z,30.2583,-88.2131,0.0,5.09,141.7,-999.0,'1111122,1111122,1111122' 
DISL,ioos:station:DISL:KATA:1,2017-06-04T06:00:00Z,30.2583,-88.2131,0.0,4.66,147.9,-999.0,'1111122,1111122,1111122' 
DISL,ioos:station:DISL:KATA:1,2017-06-04T06:30:00Z,30.2583,-88.2131,0.0,5.95,161.4,-999.0,'1111122,1111122,1111122' 
DISL,ioos:station:DISL:KATA:1,2017-06-04T07:00:00Z,30.2583,-88.2131,0.0,5.41,164.5,-999.0,'1111122,1111122,1111122' 
DISL,ioos:station:DISL:KATA:1,2017-06-04T07:30:00Z,30.2583,-88.2131,0.0,3.56,170.6,-999.0,'1111122,1111122,1111122' 
DISL,ioos:station:DISL:KATA:1,2017-06-04T08:00:00Z,30.2583,-88.2131,0.0,3.48,154.8,-999.0,'1111122,1111122,1111122' 
DISL,ioos:station:DISL:KATA:1,2017-06-04T08:30:00Z,30.2583,-88.2131,0.0,3.38,152.6,-999.0,'1111122,1111122,1111122' 
DISL,ioos:station:DISL:KATA:1,2017-06-04T09:00:00Z,30.2583,-88.2131,0.0,2.44,139.8,-999.0,'1111122,1111122,1111122' 
DISL,ioos:station:DISL:KATA:1,2017-06-04T09:30:00Z,30.2583,-88.2131,0.0,2.63,122.9,-999.0,'1111122,1111122,1111122' 
DISL,ioos:station:DISL:KATA:1,2017-06-04T10:00:00Z,30.2583,-88.2131,0.0,3.97,110.7,-999.0,'1111122,1111122,1111122' 
DISL,ioos:station:DISL:KATA:1,2017-06-04T10:30:00Z,30.2583,-88.2131,0.0,3.54,96.8,-999.0,'1111122,1111122,1111122' 
DISL,ioos:station:DISL:KATA:1,2017-06-04T11:00:00Z,30.2583,-88.2131,0.0,4.97,92.5,-999.0,'1111122,1111122,1111122' 
DISL,ioos:station:DISL:KATA:1,2017-06-04T11:30:00Z,30.2583,-88.2131,0.0,5.24,94.2,-999.0,'1111122,1111122,1111122' 
DISL,ioos:station:DISL:KATA:1,2017-06-04T12:00:00Z,30.2583,-88.2131,0.0,5.55,98.9,-999.0,'1111122,1111122,1111122' 
DISL,ioos:station:DISL:KATA:1,2017-06-04T12:30:00Z,30.2583,-88.2131,0.0,5.35,100.7,-999.0,'1111122,1111122,1111122' 
DISL,ioos:station:DISL:KATA:1,2017-06-04T13:00:00Z,30.2583,-88.2131,0.0,4.99,106.8,-999.0,'1111122,1111122,1111122' 
DISL,ioos:station:DISL:KATA:1,2017-06-04T13:30:00Z,30.2583,-88.2131,0.0,5.03,102.3,-999.0,'1111122,1111122,1111122' 
DISL,ioos:station:DISL:KATA:1,2017-06-04T14:00:00Z,30.2583,-88.2131,0.0,5.82,116.0,-999.0,'1111122,1111122,1111122' 
DISL,ioos:station:DISL:KATA:1,2017-06-04T14:30:00Z,30.2583,-88.2131,0.0,6.13,113.4,-999.0,'1111122,1111122,1111122' 
DISL,ioos:station:DISL:KATA:1,2017-06-04T15:00:00Z,30.2583,-88.2131,0.0,6.57,124.2,-999.0,'1111122,1111122,1111122' 
DISL,ioos:station:DISL:KATA:1,2017-06-04T15:30:00Z,30.2583,-88.2131,0.0,6.39,129.0,-999.0,'1111122,1111122,1111122' 
DISL,ioos:station:DISL:KATA:1,2017-06-04T16:00:00Z,30.2583,-88.2131,0.0,5.89,143.2,-999.0,'1111122,1111122,1111122' 
DISL,ioos:station:DISL:KATA:1,2017-06-04T16:30:00Z,30.2583,-88.2131,0.0,6.36,146.8,-999.0,'1111122,1111122,1111122' 
DISL,ioos:station:DISL:KATA:1,2017-06-04T17:00:00Z,30.2583,-88.2131,0.0,6.91,151.2,-999.0,'1111122,1111122,1111122' 
DISL,ioos:station:DISL:KATA:1,2017-06-04T17:30:00Z,30.2583,-88.2131,0.0,7.07,153.7,-999.0,'1111122,1111122,1111122' 
DISL,ioos:station:DISL:KATA:1,2017-06-04T18:00:00Z,30.2583,-88.2131,0.0,6.56,157.7,-999.0,'1111122,1111122,1111122' 
DISL,ioos:station:DISL:KATA:1,2017-06-04T18:30:00Z,30.2583,-88.2131,0.0,6.13,165.3,-999.0,'1111122,1111122,1111122' 
DISL,ioos:station:DISL:KATA:1,2017-06-04T19:00:00Z,30.2583,-88.2131,0.0,6.13,169.6,-999.0,'1111122,1111122,1111122' 
DISL,ioos:station:DISL:KATA:1,2017-06-04T19:30:00Z,30.2583,-88.2131,0.0,6.13,171.2,-999.0,'1111122,1111122,1111122' 
DISL,ioos:station:DISL:KATA:1,2017-06-04T20:00:00Z,30.2583,-88.2131,0.0,6.13,170.0,-999.0,'1111122,1111122,1111122' 
DISL,ioos:station:DISL:KATA:1,2017-06-04T20:30:00Z,30.2583,-88.2131,0.0,5.51,176.8,-999.0,'1111122,1111122,1111122' 
DISL,ioos:station:DISL:KATA:1,2017-06-04T21:00:00Z,30.2583,-88.2131,0.0,4.26,171.8,-999.0,'1111122,1111122,1111122' 
DISL,ioos:station:DISL:KATA:1,2017-06-04T21:30:00Z,30.2583,-88.2131,0.0,4.72,184.6,-999.0,'1111122,1111122,1111122' 
DISL,ioos:station:DISL:KATA:1,2017-06-04T22:00:00Z,30.2583,-88.2131,0.0,4.81,184.2,-999.0,'1111122,1111122,1111122' 
DISL,ioos:station:DISL:KATA:1,2017-06-04T22:30:00Z,30.2583,-88.2131,0.0,4.38,182.1,-999.0,'1111122,1111122,1111122' 
DISL,ioos:station:DISL:KATA:1,2017-06-04T23:00:00Z,30.2583,-88.2131,0.0,4.35,173.5,-999.0,'1111122,1111122,1111122' 
DISL,ioos:station:DISL:KATA:1,2017-06-04T23:30:00Z,30.2583,-88.2131,0.0,4.67,178.6,-999.0,'1111122,1111122,1111122' 
DISL,ioos:station:DISL:KATA:1,2017-06-05T00:00:00Z,30.2583,-88.2131,0.0,4.26,179.6,-999.0,'1111122,1111122,1111122' 
DISL,ioos:station:DISL:KATA:1,2017-06-05T00:30:00Z,30.2583,-88.2131,0.0,4.48,186.1,-999.0,'1111122,1111122,1111122' 
DISL,ioos:station:DISL:KATA:1,2017-06-05T01:00:00Z,30.2583,-88.2131,0.0,4.9,186.1,-999.0,'1111122,1111122,1111122' 
DISL,ioos:station:DISL:KATA:1,2017-06-05T01:30:00Z,30.2583,-88.2131,0.0,5.64,181.9,-999.0,'1111122,1111122,1111122' 
DISL,ioos:station:DISL:KATA:1,2017-06-05T02:00:00Z,30.2583,-88.2131,0.0,5.83,173.1,-999.0,'1111122,1111122,1111122' 
DISL,ioos:station:DISL:KATA:1,2017-06-05T02:30:00Z,30.2583,-88.2131,0.0,5.5,179.1,-999.0,'1111122,1111122,1111122' 
DISL,ioos:station:DISL:KATA:1,2017-06-05T03:00:00Z,30.2583,-88.2131,0.0,5.79,187.2,-999.0,'1111122,1111122,1111122' 
DISL,ioos:station:DISL:KATA:1,2017-06-05T03:30:00Z,30.2583,-88.2131,0.0,5.62,192.1,-999.0,'1111122,1111122,1111122' 
DISL,ioos:station:DISL:KATA:1,2017-06-05T04:00:00Z,30.2583,-88.2131,0.0,5.79,193.3,-999.0,'1111122,1111122,1111122' 
DISL,ioos:station:DISL:KATA:1,2017-06-05T04:30:00Z,30.2583,-88.2131,0.0,5.31,179.6,-999.0,'1111122,1111122,1111122' 
DISL,ioos:station:DISL:KATA:1,2017-06-05T05:00:00Z,30.2583,-88.2131,0.0,5.57,176.0,-999.0,'1111122,1111122,1111122' 
DISL,ioos:station:DISL:KATA:1,2017-06-05T05:30:00Z,30.2583,-88.2131,0.0,5.8,181.4,-999.0,'1111122,1111122,1111122' 
DISL,ioos:station:DISL:KATA:1,2017-06-05T06:00:00Z,30.2583,-88.2131,0.0,6.51,178.8,-999.0,'1111122,1111122,1111122' 
DISL,ioos:station:DISL:KATA:1,2017-06-05T06:30:00Z,30.2583,-88.2131,0.0,6.46,180.9,-999.0,'1111122,1111122,1111122' 
DISL,ioos:station:DISL:KATA:1,2017-06-05T07:00:00Z,30.2583,-88.2131,0.0,6.51,189.2,-999.0,'1111122,1111122,1111122' 
DISL,ioos:station:DISL:KATA:1,2017-06-05T07:30:00Z,30.2583,-88.2131,0.0,6.82,193.9,-999.0,'1111122,1111122,1111122' 